Regional Weather Roundup
Issued by NWS

Home | Current Version | Previous Version | Graphics & Text | Print | Product List | Glossary On
Versions: 1 2 3 4 5 6 7 8 9 10 11 12 13 14 15 16 17 18 19 20 21 22 23 24 25 26 27 28 29 30 31 32 33 34 35 36 37 38 39 40 41 42 43 44 45 46 47 48 49 50
000
ASUS43 KBIS 290402
RWRND

NORTH DAKOTA REGIONAL WEATHER ROUNDUP
NATIONAL WEATHER SERVICE BISMARCK ND
1100 PM CDT SUN AUG 28 2016

NOTE: "FAIR" INDICATES FEW OR NO CLOUDS BELOW 12,000 FEET WITH NO
SIGNIFICANT WEATHER AND/OR OBSTRUCTIONS TO VISIBILITY.


NDZ001>003-009>011-017-290500-
NORTHWEST NORTH DAKOTA

CITY           SKY/WX    TMP DP  RH WIND       PRES   REMARKS
WILLISTON      CLEAR     69  49  48 N7        30.09R
MINOT          CLEAR     69  54  58 NW9       30.05R
MINOT AFB      CLEAR     68  55  62 N8        30.05R
$$

NDZ018>021-031>035-040>046-290500-
SOUTHWEST NORTH DAKOTA

CITY           SKY/WX    TMP DP  RH WIND       PRES   REMARKS
BISMARCK       CLEAR     70  60  70 N3        29.98R
DICKINSON      CLOUDY    73  45  36 NE12      30.07R
GARRISON         N/A     67  54  63 N12       30.05R
HETTINGER ARPT CLEAR     76  46  34 N14       30.08R
$$

NDZ004>008-012>016-024-026-027-054-290500-
NORTHEAST NORTH DAKOTA

CITY           SKY/WX    TMP DP  RH WIND       PRES   REMARKS
GRAND FORKS    CLOUDY    72  61  68 SE14      29.94R
GRND FRKS AFB  CLOUDY    72  63  74 SE10      29.95R
DEVILS LAKE    FOG       70  70 100 E3        29.97R VSB 1/2
$$

NDZ022-023-025-028>030-036>039-047>053-290500-
SOUTHEAST NORTH DAKOTA

CITY           SKY/WX    TMP DP  RH WIND       PRES   REMARKS
FARGO          CLOUDY    80  73  79 S14       29.94S
JAMESTOWN      CLEAR     73  69  87 S5        29.95R
$$





USA.gov is the U.S. government's official web portal to all federal, state and local government web resources and services.